Location: London
(42.9830°N, 81.2500°W)
Time: 11:33:07
(UTC-04:00)

Amateur Radio Satellites - All Passes

Search period start: 31 July 2014 11:03
Search period end: 01 August 2014 11:03
Location: London, 42.9830°N, 81.2500°W

Satellite Date Start Highest point End Downlink Frequencies (MHz)
Time Altitude Azimuth
Oscar 11 31 Jul 11:03:07 11:07:25 58° 100° (E) 11:11:41 145.825 FM, Beacon 2401.500 USB
FUNcube-1 31 Jul 11:31:38 11:35:38 42° 99° (E) 11:39:39 145.950 - 145.970 MHz USB
RS-15 31 Jul 11:53:05 11:59:32 18° 98° (E) 12:05:53 29.354 - 29.394 USB, Beacon 29.352 USB
KITSAT 1 31 Jul 11:54:49 11:58:39 14° 9° (N) 12:02:27 435.175 FM
UKube-1 31 Jul 11:57:33 12:00:54 22° 295° (WNW) 12:04:14 145.840 MHz, 145.915 MHz
Sapphire 31 Jul 12:00:12 12:01:55 11° 258° (WSW) 12:03:37 437.095 MHz 1200 baud AX-25 AFSK
SO-50 31 Jul 12:06:19 12:10:14 31° 115° (ESE) 12:14:14 436.795 FM
HO-68 31 Jul 12:09:23 12:15:24 31° 301° (WNW) 12:21:24 435.675 MHz FM
Oscar 11 31 Jul 12:40:44 12:43:08 15° 297° (WNW) 12:45:33 145.825 FM, Beacon 2401.500 USB
JAS-1B 31 Jul 13:00:58 13:07:04 20° 48° (NE) 13:13:19 435.800 - 435.900 CW/SSB
AO-Echo 31 Jul 13:04:12 13:06:18 12° 57° (ENE) 13:08:23 ?
Oscar 19 31 Jul 13:05:59 13:10:02 24° 64° (ENE) 13:14:07 437.125 CW, 437.150 USB
FUNcube-1 31 Jul 13:08:56 13:11:44 18° 295° (WNW) 13:14:34 145.950 - 145.970 MHz USB
Oscar 16 31 Jul 13:33:52 13:38:42 44° 70° (ENE) 13:43:34 437.025 USB, Beacon 2401.1428
SO-50 31 Jul 13:46:40 13:50:44 33° 313° (NW) 13:54:54 436.795 FM
KITSAT 1 31 Jul 13:50:25 13:57:18 29° 38° (NE) 14:04:08 435.175 FM
UOSAT-12 31 Jul 13:52:43 13:56:37 28° 114° (ESE) 14:00:35 437.025 FM, 437.400 FM
RS-15 31 Jul 13:58:51 14:09:57 77° 119° (ESE) 14:20:51 29.354 - 29.394 USB, Beacon 29.352 USB
ITAMSAT 1 31 Jul 14:00:25 14:05:08 36° 67° (ENE) 14:09:52 435.822 SSB
Uribyol 2 31 Jul 14:18:46 14:23:50 55° 71° (ENE) 14:28:54 436.500 FM
AO-27 31 Jul 14:19:55 14:25:00 55° 71° (ENE) 14:30:05 436.795 MHz FM
TMSAT-1 31 Jul 14:32:32 14:36:36 23° 63° (ENE) 14:40:40 436.925 FM
AO-Echo 31 Jul 14:38:54 14:44:13 82° 75° (ENE) 14:49:33 ?
Oscar 19 31 Jul 14:44:15 14:49:07 44° 261° (W) 14:54:01 437.125 CW, 437.150 USB
JAS-1B 31 Jul 14:46:38 14:55:39 67° 69° (ENE) 15:05:27 435.800 - 435.900 CW/SSB
Gurwin Techsat 1B 31 Jul 14:57:23 15:02:29 50° 70° (ENE) 15:07:37 435.225 FM
Uosat F 31 Jul 15:05:16 15:05:45 10° 56° (NE) 15:06:15 435.120 FM
Oscar 16 31 Jul 15:14:14 15:18:15 23° 267° (W) 15:22:18 437.025 USB, Beacon 2401.1428
Saudisat 1A 31 Jul 15:17:54 15:21:33 24° 43° (NE) 15:25:09 436.775 MHz
UOSAT-12 31 Jul 15:32:18 15:36:37 38° 312° (NW) 15:41:03 437.025 FM, 437.400 FM
AO-7 31 Jul 15:38:06 15:45:34 38° 59° (ENE) 15:53:02 29.400 - 29.500 MHz
ITAMSAT 1 31 Jul 15:40:08 15:44:39 30° 264° (W) 15:49:12 435.822 SSB
KITSAT 1 31 Jul 15:45:31 15:53:38 83° 241° (WSW) 16:01:41 435.175 FM
Uribyol 2 31 Jul 16:00:01 16:03:38 19° 268° (W) 16:07:17 436.500 FM
AO-27 31 Jul 16:01:08 16:04:50 19° 268° (W) 16:08:33 436.795 MHz FM
TMSAT-1 31 Jul 16:11:02 16:16:10 50° 260° (W) 16:21:20 436.925 FM
RS-15 31 Jul 16:13:18 16:23:20 38° 325° (NW) 16:33:22 29.354 - 29.394 USB, Beacon 29.352 USB
AO-Echo 31 Jul 16:21:07 16:23:34 13° 272° (W) 16:26:02 ?
Uosat F 31 Jul 16:38:37 16:43:38 73° 74° (ENE) 16:48:41 435.120 FM
Gurwin Techsat 1B 31 Jul 16:38:41 16:42:43 22° 267° (W) 16:46:47 435.225 FM
JAS-1B 31 Jul 16:38:41 16:46:40 34° 269° (W) 16:55:20 435.800 - 435.900 CW/SSB
Saudisat 1A 31 Jul 16:57:07 17:01:20 45° 242° (WSW) 17:05:30 436.775 MHz
JAS-2 31 Jul 17:09:49 17:15:06 21° 59° (ENE) 17:20:05 435.800 - 435.900 CW/SSB, 435.910 FM
Hamsat 31 Jul 17:16:10 17:17:50 12° 62° (ENE) 17:19:30 145.90 MHz
AO-7 31 Jul 17:29:56 17:38:03 54° 258° (WSW) 17:46:14 29.400 - 29.500 MHz
OPAL 31 Jul 17:39:07 17:44:13 74° 105° (ESE) 17:49:21 ?
KITSAT 1 31 Jul 17:43:06 17:47:47 17° 260° (W) 17:52:28 435.175 FM
Uosat F 31 Jul 18:20:28 18:22:57 14° 270° (W) 18:25:26 435.120 FM
RS-15 31 Jul 18:31:45 18:39:57 23° 359° (N) 18:48:13 29.354 - 29.394 USB, Beacon 29.352 USB
Hamsat 31 Jul 18:49:05 18:53:14 67° 259° (W) 18:57:27 145.90 MHz
JAS-2 31 Jul 18:51:35 18:59:22 88° 255° (WSW) 19:06:34 435.800 - 435.900 CW/SSB, 435.910 FM
SO-67 31 Jul 18:55:20 18:57:47 18° 68° (ENE) 19:00:15 435.3500 MHz FM
OPAL 31 Jul 19:19:28 19:22:31 16° 302° (WNW) 19:25:36 ?
STRAND 1 31 Jul 20:07:02 20:12:07 62° 102° (ESE) 20:17:08 ?
MaSat-1 31 Jul 20:24:36 20:27:29 18° 101° (E) 20:30:39 437.345 MHz
SO-67 31 Jul 20:27:43 20:30:41 26° 264° (W) 20:33:41 435.3500 MHz FM
SO-50 31 Jul 20:36:28 20:40:57 40° 49° (NE) 20:45:29 436.795 FM
JAS-2 31 Jul 20:40:15 20:45:05 18° 272° (W) 20:49:44 435.800 - 435.900 CW/SSB, 435.910 FM
RS-15 31 Jul 20:46:46 20:56:42 37° 33° (NNE) 21:06:50 29.354 - 29.394 USB, Beacon 29.352 USB
HO-68 31 Jul 20:50:23 20:57:10 48° 65° (ENE) 21:03:57 435.675 MHz FM
UKube-1 31 Jul 21:17:16 21:21:16 36° 69° (ENE) 21:25:17 145.840 MHz, 145.915 MHz
STRAND 1 31 Jul 21:47:25 21:50:48 18° 299° (WNW) 21:54:10 ?
Oscar 11 31 Jul 21:58:58 22:03:07 50° 73° (ENE) 22:07:18 145.825 FM, Beacon 2401.500 USB
MaSat-1 31 Jul 22:00:09 22:04:16 48° 303° (WNW) 22:09:00 437.345 MHz
ISS 31 Jul 22:05:45 22:07:07 12° 130° (SE) 22:08:30 145.800 FM
SO-50 31 Jul 22:17:20 22:21:23 28° 246° (WSW) 22:25:28 436.795 FM
UOSAT-12 31 Jul 22:20:54 22:25:14 34° 47° (NE) 22:29:31 437.025 FM, 437.400 FM
FUNcube-1 31 Jul 22:29:05 22:33:04 39° 71° (ENE) 22:36:59 145.950 - 145.970 MHz USB
HO-68 31 Jul 22:38:33 22:44:59 35° 263° (W) 22:51:28 435.675 MHz FM
UKube-1 31 Jul 22:54:14 22:57:35 21° 266° (W) 23:00:56 145.840 MHz, 145.915 MHz
RS-15 31 Jul 22:59:16 23:10:20 83° 240° (WSW) 23:21:49 29.354 - 29.394 USB, Beacon 29.352 USB
Oscar 11 31 Jul 23:37:07 23:39:36 15° 269° (W) 23:42:07 145.825 FM, Beacon 2401.500 USB
ISS 31 Jul 23:40:02 23:43:22 87° 327° (NNW) 23:46:44 145.800 FM
PCSat 31 Jul 23:47:53 23:51:54 22° 107° (ESE) 23:55:56 145.825 MHz
UOSAT-12 01 Aug 00:01:08 00:05:21 33° 245° (WSW) 00:09:31 437.025 FM, 437.400 FM
FUNcube-1 01 Aug 00:06:35 00:09:37 19° 267° (W) 00:12:37 145.950 - 145.970 MHz USB
AO-40 01 Aug 00:07:21 05:46:17 38° 181° (S) 10:27:25 Beacon 2401.320
Sapphire 01 Aug 00:56:20 01:01:43 76° 118° (ESE) 01:07:09 437.095 MHz 1200 baud AX-25 AFSK
RS-15 01 Aug 01:13:41 01:21:00 21° 260° (W) 01:28:32 29.354 - 29.394 USB, Beacon 29.352 USB
ISS 01 Aug 01:17:41 01:20:27 23° 345° (NNW) 01:23:14 145.800 FM
PCSat 01 Aug 01:29:34 01:34:53 57° 304° (NW) 01:40:15 145.825 MHz
Oscar 10/S400 01 Aug 01:32:27 02:07:28 61° 185° (S) 10:56:19 145.825 - 145.975 CW/USB, Beacon 145.810 USB
Oscar 16 01 Aug 01:46:02 01:48:50 15° 90° (E) 01:51:37 437.025 USB, Beacon 2401.1428
ITAMSAT 1 01 Aug 02:14:49 02:16:14 11° 88° (E) 02:17:38 435.822 SSB
Uribyol 2 01 Aug 02:31:40 02:35:09 18° 92° (E) 02:38:37 436.500 FM
AO-27 01 Aug 02:33:09 02:36:38 18° 91° (E) 02:40:05 436.795 MHz FM
JAS-1B 01 Aug 02:34:24 02:40:39 20° 83° (E) 02:46:15 435.800 - 435.900 CW/SSB
Sapphire 01 Aug 02:41:45 02:45:45 21° 318° (NW) 02:49:47 437.095 MHz 1200 baud AX-25 AFSK
AO-Echo 01 Aug 02:46:20 02:50:23 24° 93° (E) 02:54:19 ?
Oscar 19 01 Aug 02:54:33 02:59:41 61° 101° (E) 03:04:48 437.125 CW, 437.150 USB
ISS 01 Aug 02:55:30 02:58:00 19° 6° (N) 03:00:29 145.800 FM
Gurwin Techsat 1B 01 Aug 03:13:39 03:17:17 18° 91° (E) 03:20:53 435.225 FM
PCSat 01 Aug 03:17:11 03:19:32 13° 326° (NW) 03:21:53 145.825 MHz
OPAL 01 Aug 03:18:19 03:21:46 20° 60° (ENE) 03:25:15 ?
Oscar 16 01 Aug 03:23:32 03:28:42 71° 287° (WNW) 03:33:51 437.025 USB, Beacon 2401.1428
ITAMSAT 1 01 Aug 03:51:13 03:56:25 89° 285° (WNW) 04:01:35 435.822 SSB
Uribyol 2 01 Aug 04:09:56 04:15:00 57° 288° (WNW) 04:20:02 436.500 FM
AO-27 01 Aug 04:11:26 04:16:32 58° 288° (WNW) 04:21:35 436.795 MHz FM
JAS-1B 01 Aug 04:23:10 04:32:33 89° 286° (WNW) 04:40:26 435.800 - 435.900 CW/SSB
AO-Echo 01 Aug 04:24:37 04:29:19 40° 291° (WNW) 04:33:51 ?
TMSAT-1 01 Aug 04:25:46 04:31:01 61° 101° (E) 04:36:14 436.925 FM
KITSAT 1 01 Aug 04:26:12 04:28:17 11° 97° (E) 04:30:22 435.175 FM
ISS 01 Aug 04:32:07 04:35:20 42° 26° (NNE) 04:38:33 145.800 FM
Oscar 19 01 Aug 04:35:02 04:38:33 19° 299° (WNW) 04:42:04 437.125 CW, 437.150 USB
MaSat-1 01 Aug 04:42:11 04:43:59 12° 39° (NE) 04:45:46 437.345 MHz
Uosat F 01 Aug 04:46:21 04:50:05 21° 93° (E) 04:53:46 435.120 FM
Gurwin Techsat 1B 01 Aug 04:52:25 04:57:38 59° 288° (WNW) 05:02:49 435.225 FM
OPAL 01 Aug 04:55:24 05:00:15 56° 257° (WSW) 05:05:08 ?
Oscar 16 01 Aug 05:06:38 05:07:07 10° 304° (NW) 05:07:36 437.025 USB, Beacon 2401.1428
AO-7 01 Aug 05:30:14 05:38:18 51° 101° (ESE) 05:46:17 29.400 - 29.500 MHz
ITAMSAT 1 01 Aug 05:32:55 05:35:08 13° 303° (WNW) 05:37:22 435.822 SSB
STRAND 1 01 Aug 05:47:56 05:50:29 14° 58° (ENE) 05:53:03 ?
TMSAT-1 01 Aug 06:06:47 06:10:27 19° 299° (WNW) 06:14:07 436.925 FM
ISS 01 Aug 06:09:00 06:11:58 29° 223° (SW) 06:14:55 145.800 FM
KITSAT 1 01 Aug 06:14:07 06:22:04 64° 116° (ESE) 06:30:03 435.175 FM
JAS-1B 01 Aug 06:14:48 06:21:40 24° 309° (NW) 06:27:55 435.800 - 435.900 CW/SSB
MaSat-1 01 Aug 06:17:16 06:22:30 56° 59° (ENE) 06:27:25 437.345 MHz
Uosat F 01 Aug 06:24:18 06:29:07 48° 290° (WNW) 06:33:54 435.120 FM
Hamsat 01 Aug 06:34:33 06:37:49 21° 93° (E) 06:41:04 145.90 MHz
Saudisat 1A 01 Aug 07:04:20 07:08:22 36° 116° (ESE) 07:12:26 436.775 MHz
AO-7 01 Aug 07:23:21 07:30:53 40° 301° (WNW) 07:38:22 29.400 - 29.500 MHz
STRAND 1 01 Aug 07:23:50 07:28:59 84° 256° (WSW) 07:34:09 ?
JAS-2 01 Aug 07:46:32 07:52:24 77° 103° (ESE) 07:57:41 435.800 - 435.900 CW/SSB, 435.910 FM
SO-67 01 Aug 07:50:53 07:53:25 19° 94° (E) 07:55:56 435.3500 MHz FM
MaSat-1 01 Aug 07:55:33 07:59:21 21° 258° (WSW) 08:02:58 437.345 MHz
Sapphire 01 Aug 08:01:23 08:04:31 15° 37° (NE) 08:07:38 437.095 MHz 1200 baud AX-25 AFSK
Hamsat 01 Aug 08:09:54 08:13:53 37° 289° (WNW) 08:17:52 145.90 MHz
KITSAT 1 01 Aug 08:10:38 08:17:57 36° 317° (NW) 08:25:19 435.175 FM
PCSat 01 Aug 08:33:43 08:38:11 25° 45° (NE) 08:42:37 145.825 MHz
Saudisat 1A 01 Aug 08:44:10 08:48:01 29° 315° (NW) 08:51:54 436.775 MHz
SO-67 01 Aug 09:23:34 09:26:29 25° 290° (WNW) 09:29:23 435.3500 MHz FM
JAS-2 01 Aug 09:33:13 09:36:39 16° 304° (NW) 09:39:55 435.800 - 435.900 CW/SSB, 435.910 FM
Sapphire 01 Aug 09:43:29 09:48:56 73° 58° (ENE) 09:54:20 437.095 MHz 1200 baud AX-25 AFSK
HO-68 01 Aug 10:04:19 10:11:06 44° 99° (E) 10:17:50 435.675 MHz FM
KITSAT 1 01 Aug 10:11:53 10:16:13 15° 345° (NNW) 10:20:33 435.175 FM
PCSat 01 Aug 10:16:38 10:21:58 58° 245° (WSW) 10:27:16 145.825 MHz
UKube-1 01 Aug 10:40:23 10:44:42 60° 101° (ESE) 10:48:59 145.840 MHz, 145.915 MHz
